FW7685 Weather Reports


Display with metric or nautical units.
time (UTC)temp
F
wind
direction
speed
MPH
gust
MPH
rain 1hr
in
rain 24hr
in
rain mn
in
humidity
%
barometer
mb
20260507074433 49 254 1.0 3.0 0.00 0.00 0.00 62 1015.2
20260507073931 49 78 2.0 3.0 0.00 0.00 0.00 63 1015.1
20260507073550 48 1 2.0 4.0 0.00 0.00 0.00 64 1015.2
20260507072418 47 16 1.0 3.0 0.00 0.00 0.00 64 1015.1
20260507071916 46 89 1.0 2.0 0.00 0.00 0.00 64 1015.1
20260507071416 46 89 1.0 3.0 0.00 0.00 0.00 64 1015.0
20260507070917 45 79 1.0 3.0 0.00 0.00 0.00 64 1015.0
20260507070414 45 76 1.0 3.0 0.00 0.00 0.00 64 1015.0
20260507065913 45 56 1.0 3.0 0.00 0.00 0.00 63 1015.0
20260507065413 44 104 1.0 3.0 0.00 0.00 0.00 63 1015.0
20260507064906 44 56 1.0 3.0 0.00 0.00 0.00 63 1015.1
20260507064408 44 314 1.0 3.0 0.00 0.00 0.00 63 1015.0
20260507063906 44 324 1.0 3.0 0.00 0.00 0.00 63 1015.0
20260507063406 44 314 1.0 3.0 0.00 0.00 0.00 63 1015.0
20260507062906 44 314 2.0 3.0 0.00 0.00 0.00 63 1015.0
20260507062404 44 314 1.0 2.0 0.00 0.00 0.00 63 1014.9
20260507061902 43 296 1.0 2.0 0.00 0.00 0.00 63 1014.9
20260507061405 43 314 1.0 2.0 0.00 0.00 0.00 63 1014.8
20260507060902 43 306 1.0 2.0 0.00 0.00 0.00 63 1014.9
20260507060407 43 324 1.0 2.0 0.00 0.00 0.00 63 1014.8
20260507055903 43 314 0.0 2.0 0.00 0.00 0.00 63 1014.9
20260507055407 43 306 1.0 2.0 0.00 0.00 0.00 63 1014.7
20260507054905 43 1 1.0 2.0 0.00 0.00 0.00 63 1014.7
20260507054405 43 45 1.0 2.0 0.00 0.00 0.00 63 1014.7
20260507053903 43 45 1.0 2.0 0.00 0.00 0.00 63 1014.6
20260507053406 42 1 0.0 1.0 0.00 0.00 0.00 62 1014.6
20260507052904 42 223 0.0 1.0 0.00 0.00 0.00 62 1014.6
20260507052405 42 1 0.0 1.0 0.00 0.00 0.00 61 1014.5
20260507051904 42 314 0.0 1.0 0.00 0.00 0.00 61 1014.5
20260507051406 42 45 0.0 1.0 0.00 0.00 0.00 61 1014.5
20260507050905 42 324 0.0 1.0 0.00 0.00 0.00 61 1014.5
20260507050759 42 321 0.0 1.0 0.00 0.00 0.00 61 1014.5
20260507045904 42 1 0.0 1.0 0.00 0.00 0.00 61 1014.5
20260507045407 42 178 0.0 1.0 0.00 0.00 0.00 61 1014.5
20260507044906 42 269 0.0 1.0 0.00 0.00 0.00 61 1014.5
20260507044406 42 45 0.0 1.0 0.00 0.00 0.00 61 1014.5
20260507043904 42 45 0.0 1.0 0.00 0.00 0.00 61 1014.4
20260507043404 42 1 0.0 1.0 0.00 0.00 0.00 61 1014.4
20260507043256 43 331 0.0 2.0 0.00 0.00 0.00 61 1014.3
20260507042405 43 1 1.0 2.0 0.00 0.00 0.00 61 1014.3
20260507041904 43 314 0.0 1.0 0.00 0.00 0.00 61 1014.3
20260507041405 43 296 0.0 1.0 0.00 0.00 0.00 61 1014.4
20260507040903 43 331 0.0 1.0 0.00 0.00 0.00 61 1014.4
20260507040406 43 314 0.0 1.0 0.00 0.00 0.00 61 1014.4
20260507040037 43 331 0.0 1.0 0.00 0.00 0.00 61 1014.4
20260507034903 43 89 0.0 2.0 0.00 0.00 0.00 61 1014.4
20260507034404 43 1 0.0 2.0 0.00 0.00 0.00 61 1014.4
20260507033903 43 45 0.0 1.0 0.00 0.00 0.00 61 1014.3
20260507033404 43 1 0.0 1.0 0.00 0.00 0.00 61 1014.3
20260507032905 43 314 0.0 1.0 0.00 0.00 0.00 61 1014.3
20260507032404 43 331 1.0 2.0 0.00 0.00 0.00 61 1014.3
20260507031904 43 314 1.0 2.0 0.00 0.00 0.00 60 1014.3
20260507031405 43 296 1.0 2.0 0.00 0.00 0.00 60 1014.3
20260507031301 43 314 1.0 2.0 0.00 0.00 0.00 60 1014.3
20260507030404 43 314 1.0 2.0 0.00 0.00 0.00 60 1014.3
20260507025903 44 314 0.0 2.0 0.00 0.00 0.00 60 1014.3
20260507025404 44 314 1.0 2.0 0.00 0.00 0.00 60 1014.3
20260507024904 44 314 0.0 2.0 0.00 0.00 0.00 60 1014.3
20260507024405 44 310 1.0 2.0 0.00 0.00 0.00 60 1014.3
20260507024256 44 303 0.0 2.0 0.00 0.00 0.00 60 1014.2
20260507023405 44 269 1.0 2.0 0.00 0.00 0.00 60 1014.3
20260507022904 44 269 0.0 2.0 0.00 0.00 0.00 60 1014.3
20260507022406 44 306 1.0 2.0 0.00 0.00 0.00 60 1014.2
20260507022300 44 303 1.0 2.0 0.00 0.00 0.00 60 1014.3
20260507021405 45 314 0.0 2.0 0.00 0.00 0.00 59 1014.3
20260507020902 45 45 0.0 2.0 0.00 0.00 0.00 60 1014.2
20260507020804 45 314 1.0 2.0 0.00 0.00 0.00 60 1014.2
20260507015903 45 314 0.0 2.0 0.00 0.00 0.00 59 1014.1
20260507015404 45 331 1.0 2.0 0.00 0.00 0.00 59 1014.1
20260507014903 45 269 0.0 2.0 0.00 0.00 0.00 59 1014.0
20260507014404 45 341 0.0 2.0 0.00 0.00 0.00 59 1014.1
20260507014258 45 1 1.0 2.0 0.00 0.00 0.00 59 1014.2
20260507013405 45 314 1.0 2.0 0.00 0.00 0.00 59 1014.1
20260507012903 46 45 0.0 2.0 0.00 0.00 0.00 59 1014.0
20260507012404 46 331 1.0 2.0 0.00 0.00 0.00 59 1014.1
20260507011901 46 1 1.0 2.0 0.00 0.00 0.00 59 1014.1
20260507011402 46 286 1.0 2.0 0.00 0.00 0.00 59 1014.2
20260507011254 46 331 1.0 2.0 0.00 0.00 0.00 58 1014.2
20260507010401 46 314 1.0 1.0 0.00 0.00 0.00 58 1014.2
20260507005900 46 241 0.0 2.0 0.00 0.00 0.00 58 1014.1
20260507005800 46 324 0.0 2.0 0.00 0.00 0.00 58 1014.1
20260507004858 47 269 0.0 2.0 0.00 0.00 0.00 58 1014.1
20260507004358 47 314 1.0 2.0 0.00 0.00 0.00 58 1014.1
20260507003858 47 331 0.0 2.0 0.00 0.00 0.00 58 1014.1
20260507003359 47 314 0.0 2.0 0.00 0.00 0.00 57 1014.1
20260507002858 47 314 0.0 2.0 0.00 0.00 0.00 57 1014.2
20260507002355 47 296 0.0 2.0 0.00 0.00 0.00 57 1014.2
20260507001854 47 269 0.0 1.0 0.00 0.00 0.00 57 1014.2
20260507001754 47 1 0.0 2.0 0.00 0.00 0.00 57 1014.2
20260507001249 48 314 1.0 2.0 0.00 0.00 0.00 57 1014.2
20260507000825 48 45 1.0 3.0 0.00 0.00 0.00 57 1014.2
20260506235853 48 269 1.0 3.0 0.00 0.00 0.00 57 1014.2
20260506235353 48 314 1.0 2.0 0.00 0.00 0.00 57 1014.2
20260506235248 48 296 1.0 2.0 0.00 0.00 0.00 57 1014.2
20260506234349 48 296 1.0 3.0 0.00 0.00 0.00 56 1014.0
20260506233850 48 314 0.0 3.0 0.00 0.00 0.00 56 1014.0
20260506233349 48 45 1.0 3.0 0.00 0.00 0.00 56 1013.9
20260506233238 49 321 1.0 2.0 0.00 0.00 0.00 56 1014.0
20260506232347 49 324 1.0 3.0 0.00 0.00 0.00 56 1013.9
20260506231847 49 314 1.0 3.0 0.00 0.00 0.00 55 1013.9
20260506231348 49 45 1.0 2.0 0.00 0.00 0.00 55 1013.9
20260506230846 49 1 1.0 2.0 0.00 0.00 0.00 54 1013.9
20260506230348 50 314 0.0 2.0 0.00 0.00 0.00 54 1013.9
20260506225846 50 306 0.0 1.0 0.00 0.00 0.00 54 1013.9
20260506225747 50 303 0.0 2.0 0.00 0.00 0.00 54 1014.0
20260506224847 50 45 0.0 2.0 0.00 0.00 0.00 54 1014.0
20260506224347 50 178 0.0 2.0 0.00 0.00 0.00 53 1014.0
20260506223845 50 178 0.0 2.0 0.00 0.00 0.00 53 1014.0
20260506223744 50 331 0.0 2.0 0.00 0.00 0.00 53 1014.0
20260506222845 51 1 1.0 2.0 0.00 0.00 0.00 53 1013.9
20260506222347 51 35 1.0 2.0 0.00 0.00 0.00 53 1013.9
20260506221845 51 324 1.0 3.0 0.00 0.00 0.00 52 1013.8
20260506221346 51 1 1.0 3.0 0.00 0.00 0.00 52 1013.8
20260506220844 51 28 1.0 3.0 0.00 0.00 0.00 52 1013.8
20260506220346 51 39 1.0 4.0 0.00 0.00 0.00 52 1013.8
20260506220242 51 296 1.0 4.0 0.00 0.00 0.00 51 1013.7
20260506215347 51 38 1.0 3.0 0.00 0.00 0.00 51 1013.7
20260506214845 52 331 1.0 2.0 0.00 0.00 0.00 50 1013.7
20260506214345 52 314 1.0 2.0 0.00 0.00 0.00 50 1013.7
20260506213845 52 63 1.0 2.0 0.00 0.00 0.00 50 1013.7
20260506213345 52 28 1.0 4.0 0.00 0.00 0.00 50 1013.7
20260506212844 52 23 1.0 4.0 0.00 0.00 0.00 49 1013.7
20260506212345 52 324 1.0 3.0 0.00 0.00 0.00 49 1013.7
20260506211842 52 28 2.0 3.0 0.00 0.00 0.00 49 1013.7
20260506211347 52 310 1.0 4.0 0.00 0.00 0.00 49 1013.7
20260506210844 52 310 1.0 4.0 0.00 0.00 0.00 48 1013.7
20260506210745 52 331 1.0 3.0 0.00 0.00 0.00 48 1013.6
20260506210236 53 25 2.0 4.0 0.00 0.00 0.00 48 1013.6
20260506205516 53 20 1.0 4.0 0.00 0.00 0.00 47 1013.6
20260506204515 53 63 1.0 5.0 0.00 0.00 0.00 47 1013.6
20260506203343 53 56 1.0 3.0 0.00 0.00 0.00 46 1013.5
20260506202844 53 337 1.0 4.0 0.00 0.00 0.00 45 1013.5
20260506202741 53 28 1.0 4.0 0.00 0.00 0.00 45 1013.4
20260506201842 53 1 2.0 4.0 0.00 0.00 0.00 46 1013.4
20260506201344 53 16 1.0 3.0 0.00 0.00 0.00 46 1013.3
20260506200842 53 303 1.0 3.0 0.00 0.00 0.00 46 1013.3
20260506200343 53 309 1.0 5.0 0.00 0.00 0.00 45 1013.2
20260506195843 53 16 2.0 5.0 0.00 0.00 0.00 45 1013.2
20260506195342 53 1 2.0 3.0 0.00 0.00 0.00 46 1013.1
20260506194842 53 89 1.0 3.0 0.00 0.00 0.00 46 1013.1
20260506194344 53 1 1.0 3.0 0.00 0.00 0.00 46 1013.1
20260506193843 53 306 0.0 3.0 0.00 0.00 0.00 46 1012.9
20260506193343 54 303 1.0 3.0 0.00 0.00 0.00 46 1012.9
20260506192841 54 1 1.0 3.0 0.00 0.00 0.00 46 1012.9
20260506192342 54 350 0.0 4.0 0.00 0.00 0.00 46 1012.9
20260506192250 54 314 1.0 4.0 0.00 0.00 0.00 46 1012.8
20260506191512 54 314 1.0 4.0 0.00 0.00 0.00 46 1012.9
20260506190344 54 89 1.0 7.0 0.00 0.00 0.00 46 1012.6
20260506185840 54 329 1.0 5.0 0.00 0.00 0.00 45 1012.6
20260506185748 54 344 2.0 5.0 0.00 0.00 0.00 45 1012.6
20260506184841 54 35 2.0 5.0 0.00 0.00 0.00 45 1012.5
20260506184342 54 28 1.0 5.0 0.00 0.00 0.00 46 1012.5
20260506183841 54 89 2.0 5.0 0.00 0.00 0.00 45 1012.5
20260506183343 54 1 2.0 3.0 0.00 0.00 0.00 45 1012.5
20260506182839 54 45 1.0 4.0 0.00 0.00 0.00 45 1012.5
20260506182340 54 314 1.0 5.0 0.00 0.00 0.00 45 1012.4
20260506181838 54 296 2.0 5.0 0.00 0.00 0.00 45 1012.3
20260506181341 55 89 2.0 5.0 0.00 0.00 0.00 45 1012.2
20260506181233 55 300 1.0 4.0 0.00 0.00 0.00 45 1012.2
20260506180341 55 299 2.0 4.0 0.00 0.00 0.00 45 1012.1
20260506175839 55 63 1.0 4.0 0.00 0.00 0.00 45 1012.1
20260506175511 55 127 2.0 4.0 0.00 0.00 0.00 45 1012.0
20260506174739 55 331 2.0 5.0 0.00 0.00 0.00 44 1012.0
20260506173838 56 303 1.0 4.0 0.00 0.00 0.00 44 1011.9
20260506173340 56 314 1.0 4.0 0.00 0.00 0.00 44 1011.9
20260506172839 56 83 2.0 4.0 0.00 0.00 0.00 44 1011.9
20260506172341 56 45 1.0 4.0 0.00 0.00 0.00 44 1011.9
20260506172011 56 41 1.0 6.0 0.00 0.00 0.00 44 1011.8
20260506170841 57 1 2.0 7.0 0.00 0.00 0.00 43 1011.7
20260506170339 57 79 3.0 5.0 0.00 0.00 0.00 43 1011.8
20260506170240 57 324 2.0 6.0 0.00 0.00 0.00 42 1011.7
20260506165339 57 62 4.0 6.0 0.00 0.00 0.00 43 1011.7
20260506165234 57 72 2.0 4.0 0.00 0.00 0.00 42 1011.7
20260506164342 56 73 1.0 4.0 0.00 0.00 0.00 42 1011.7
20260506163839 56 321 2.0 4.0 0.00 0.00 0.00 42 1011.7
20260506163340 56 300 2.0 4.0 0.00 0.00 0.00 43 1011.8
20260506162837 56 76 1.0 4.0 0.00 0.00 0.00 43 1011.8
20260506162338 56 178 1.0 3.0 0.00 0.00 0.00 43 1011.7
20260506161838 56 206 1.0 3.0 0.00 0.00 0.00 45 1011.7
20260506161339 56 1 1.0 3.0 0.00 0.00 0.00 44 1011.8
20260506160837 56 331 1.0 3.0 0.00 0.00 0.00 44 1011.7
20260506160339 56 314 1.0 3.0 0.00 0.00 0.00 44 1011.8
20260506155838 56 65 1.0 4.0 0.00 0.00 0.00 44 1011.8
20260506155737 56 20 1.0 4.0 0.00 0.00 0.00 44 1012.0
20260506154837 56 54 1.0 4.0 0.00 0.00 0.00 44 1011.9
20260506154507 56 39 2.0 5.0 0.00 0.00 0.00 43 1011.9
20260506153337 56 38 2.0 4.0 0.00 0.00 0.00 43 1012.0
20260506152838 56 299 2.0 4.0 0.00 0.00 0.00 43 1011.9
20260506152339 56 45 1.0 4.0 0.00 0.00 0.00 43 1011.9
20260506151837 56 324 1.0 3.0 0.00 0.00 0.00 44 1011.9
20260506151337 56 45 1.0 3.0 0.00 0.00 0.00 44 1011.9
20260506151224 56 38 1.0 4.0 0.00 0.00 0.00 45 1012.0
20260506150337 56 223 2.0 5.0 0.00 0.00 0.00 44 1011.9
20260506150010 56 1 2.0 5.0 0.00 0.00 0.00 44 1012.0
20260506144835 56 314 2.0 4.0 0.00 0.00 0.00 43 1012.0
20260506144336 56 35 1.0 5.0 0.00 0.00 0.00 42 1012.0
20260506143835 56 306 2.0 5.0 0.00 0.00 0.00 42 1011.9
20260506143339 57 28 1.0 3.0 0.00 0.00 0.00 43 1011.9
20260506142834 56 10 2.0 5.0 0.00 0.00 0.00 43 1012.0
20260506142335 56 319 2.0 5.0 0.00 0.00 0.00 42 1011.9
20260506141835 57 241 1.0 6.0 0.00 0.00 0.00 41 1011.9
20260506141337 57 314 2.0 10.0 0.00 0.00 0.00 41 1011.9
20260506140834 57 323 2.0 10.0 0.00 0.00 0.00 41 1011.8
20260506140506 57 45 2.0 7.0 0.00 0.00 0.00 42 1011.8
20260506135335 57 28 2.0 9.0 0.00 0.00 0.00 41 1011.8
20260506134834 57 86 4.0 9.0 0.00 0.00 0.00 43 1011.9
20260506134335 57 23 2.0 7.0 0.00 0.00 0.00 41 1011.9
20260506134229 57 72 2.0 10.0 0.00 0.00 0.00 40 1011.8
20260506133335 57 314 2.0 10.0 0.00 0.00 0.00 39 1011.9
20260506133227 57 320 3.0 10.0 0.00 0.00 0.00 36 1011.9
20260506132335 57 324 2.0 10.0 0.00 0.00 0.00 39 1011.8
20260506131833 57 7 3.0 6.0 0.00 0.00 0.00 39 1011.8
20260506131335 57 38 2.0 9.0 0.00 0.00 0.00 40 1011.8
20260506131229 57 303 2.0 9.0 0.00 0.00 0.00 39 1011.9
20260506130334 57 8 3.0 7.0 0.00 0.00 0.00 39 1011.9
20260506125832 58 56 2.0 5.0 0.00 0.00 0.00 39 1011.9
20260506125334 58 44 2.0 5.0 0.00 0.00 0.00 39 1011.9
20260506124919 58 296 1.0 6.0 0.00 0.00 0.00 38 1011.8
20260506124910 57 320 3.0 6.0 0.00 0.00 0.00 39 1011.9
20260506124848 58 1 1.0 6.0 0.00 0.00 0.00 38 1011.9
20260506122832 57 45 3.0 9.0 0.00 0.00 0.00 40 1011.9
20260506122335 56 42 2.0 7.0 0.00 0.00 0.00 40 1011.9
20260506121832 57 6 3.0 7.0 0.00 0.00 0.00 38 1012.0
20260506121333 57 309 2.0 7.0 0.00 0.00 0.00 40 1011.9
20260506120833 57 327 3.0 7.0 0.00 0.00 0.00 40 1012.0
20260506120338 57 45 2.0 9.0 0.00 0.00 0.00 41 1011.9
20260506115832 56 35 3.0 9.0 0.00 0.00 0.00 42 1012.0
20260506115333 56 69 4.0 7.0 0.00 0.00 0.00 42 1012.0
20260506114831 56 329 2.0 6.0 0.00 0.00 0.00 42 1012.1
20260506114333 56 337 3.0 7.0 0.00 0.00 0.00 41 1012.1
20260506113833 56 317 3.0 7.0 0.00 0.00 0.00 41 1012.0
20260506113332 56 45 4.0 6.0 0.00 0.00 0.00 42 1012.0
20260506112830 56 1 4.0 7.0 0.00 0.00 0.00 42 1012.0
20260506112332 56 24 3.0 7.0 0.00 0.00 0.00 41 1012.1
20260506111830 56 329 4.0 10.0 0.00 0.00 0.00 39 1012.2
20260506111731 56 337 4.0 10.0 0.00 0.00 0.00 40 1012.0
20260506110830 55 58 4.0 10.0 0.00 0.00 0.00 42 1012.1
20260506110344 55 324 3.0 9.0 0.00 0.00 0.00 43 1012.2
20260506105830 54 344 1.0 5.0 0.00 0.00 0.00 47 1012.1
20260506105332 54 351 2.0 5.0 0.00 0.00 0.00 47 1012.2
20260506104830 54 262 2.0 6.0 0.00 0.00 0.00 47 1012.1
20260506104332 54 324 2.0 6.0 0.00 0.00 0.00 46 1012.1
20260506103830 54 51 2.0 6.0 0.00 0.00 0.00 46 1012.2
20260506103331 53 56 2.0 6.0 0.00 0.00 0.00 47 1012.2
20260506102830 53 331 2.0 5.0 0.00 0.00 0.00 46 1012.2
20260506102332 53 228 3.0 5.0 0.00 0.00 0.00 45 1012.3
20260506102226 53 213 2.0 6.0 0.00 0.00 0.00 46 1012.3
20260506101331 53 314 3.0 7.0 0.00 0.00 0.00 45 1012.2
20260506100829 53 1 2.0 11.0 0.00 0.00 0.00 46 1012.2
20260506100331 53 316 2.0 11.0 0.00 0.00 0.00 44 1012.3
20260506095828 53 1 2.0 11.0 0.00 0.00 0.00 46 1012.2
20260506095330 53 7 3.0 5.0 0.00 0.00 0.00 46 1012.1
20260506095221 53 45 2.0 7.0 0.00 0.00 0.00 46 1012.1
20260506094330 53 28 3.0 7.0 0.00 0.00 0.00 47 1012.2
20260506094236 52 351 2.0 7.0 0.00 0.00 0.00 48 1012.1
20260506093503 52 331 2.0 7.0 0.00 0.00 0.00 47 1012.2
20260506092329 52 45 2.0 4.0 0.00 0.00 0.00 48 1012.1
20260506091829 52 331 2.0 4.0 0.00 0.00 0.00 49 1012.1
20260506091741 51 331 2.0 5.0 0.00 0.00 0.00 49 1012.1
20260506090828 51 330 2.0 6.0 0.00 0.00 0.00 49 1012.2
20260506090329 51 320 3.0 6.0 0.00 0.00 0.00 48 1012.2
20260506085827 51 327 2.0 5.0 0.00 0.00 0.00 49 1012.3
20260506085329 52 310 2.0 11.0 0.00 0.00 0.00 48 1012.2
20260506084827 51 37 4.0 11.0 0.00 0.00 0.00 49 1012.2
20260506084329 51 299 2.0 6.0 0.00 0.00 0.00 49 1012.1
20260506083826 51 317 2.0 6.0 0.00 0.00 0.00 49 1012.3
20260506083328 51 18 2.0 6.0 0.00 0.00 0.00 50 1012.2
20260506082828 51 135 3.0 6.0 0.00 0.00 0.00 50 1012.2
20260506082725 51 321 2.0 5.0 0.00 0.00 0.00 50 1012.2
20260506082220 51 269 2.0 5.0 0.00 0.00 0.00 51 1012.3
20260506081328 51 45 3.0 6.0 0.00 0.00 0.00 52 1012.2
20260506080827 50 6 3.0 6.0 0.00 0.00 0.00 52 1012.2
20260506080328 50 37 3.0 5.0 0.00 0.00 0.00 52 1012.2